Wind_Speed
16 16 16 16 17 18 18 19 19 19 19 18 18 18 18 19 19 20 21 22 23 24 25 27 28 29 29 29 29 28 27 25 23 22 21 20 20 19 19 19 18 18 18 18 19 19 19 19 18 18 18 18 18 18 19 19 20 21 21 22 22 22 22 22 22 22 23 23 23 23 23 24 24 25 26 27 28 28 29 29 29 29 29 29 29
17 17 17 16 17 18 18 19 20 20 20 20 20 20 21 23 24 24 25 26 27 28 29 29 30 30 30 29 28 27 25 23 22 21 20 19 19 19 19 19 18 18 18 18 18 19 18 18 18 17 17 17 18 19 19 20 20 21 22 22 22 23 23 23 23 24 24 23 23 24 25 25 26 27 28 29 29 29 30 30 30 30 29 29 29
17 18 17 17 18 18 19 19 20 21 21 21 21 22 24 26 27 27 28 29 29 30 30 30 30 30 29 28 26 25 23 22 20 19 19 19 19 19 19 19 18 18 18 18 18 18 18 17 17 17 17 17 18 19 20 20 21 21 22 22 22 23 23 24 25 25 24 24 24 25 26 26 27 28 29 29 30 30 30 29 29 29 29 29 29
17 18 18 18 18 18 19 19 20 20 21 21 21 23 26 27 27 28 29 29 30 30 30 30 29 28 27 26 24 23 21 20 19 18 18 19 19 19 19 19 18 18 18 18 18 18 17 17 17 17 17 18 19 19 20 20 21 21 22 22 23 23 23 24 25 24 23 23 24 26 27 28 28 29 29 29 29 29 29 29 29 29 29 28 28
17 18 18 18 18 19 19 18 18 19 20 21 22 24 27 28 28 27 28 29 29 29 29 28 27 25 24 23 22 21 20 18 18 18 18 19 19 19 19 18 18 18 18 18 18 17 17 17 17 17 17 18 19 19 20 20 21 21 22 22 23 23 23 24 24 24 24 24 25 26 27 28 28 29 29 29 29 28 28 28 28 28 28 27 27
17 18 18 18 18 19 18 18 18 19 21 22 23 25 27 29 28 28 29 29 28 27 26 26 24 22 20 20 21 20 19 18 18 19 19 18 18 18 18 18 17 17 17 17 17 17 17 17 17 17 18 18 19 19 20 20 21 21 22 22 23 23 23 24 25 25 25 25 26 27 27 27 28 27 28 27 27 27 27 27 27 27 26 26 26
17 18 19 18 18 19 18 18 19 20 23 25 26 26 27 29 29 28 28 28 26 24 23 23 22 21 19 19 21 21 20 19 18 19 18 17 17 17 17 17 17 17 17 17 17 17 17 17 17 17 18 18 18 19 20 20 21 21 22 22 22 23 24 24 25 25 25 26 26 26 26 26 26 26 26 26 26 26 26 26 25 25 25 25 26
17 18 18 18 19 19 19 20 22 23 24 26 27 27 27 27 28 27 26 25 24 22 21 22 22 21 20 20 22 21 20 18 17 18 18 17 16 16 16 17 17 17 17 16 16 16 16 17 17 17 17 17 18 19 19 20 21 21 21 22 22 23 23 24 24 24 24 25 25 25 24 24 24 24 24 24 24 24 24 23 23 23 23 24 25
17 18 19 19 19 19 19 22 24 24 25 26 26 26 26 25 25 25 24 23 23 21 21 22 22 21 21 21 21 20 18 17 17 17 17 16 15 15 16 16 17 17 16 16 15 15 16 17 17 17 17 17 18 18 19 20 21 21 21 21 21 22 22 23 23 23 23 22 22 22 22 21 21 21 22 22 22 22 22 22 22 22 22 23 24
18 19 19 19 19 20 21 22 24 25 25 25 25 25 24 23 23 23 23 22 22 21 22 23 23 21 20 20 20 19 17 16 16 16 15 15 14 14 15 15 16 16 16 15 14 14 15 16 17 17 16 16 17 18 18 19 20 20 20 20 20 21 21 21 21 21 20 19 19 19 19 19 19 19 20 20 20 20 20 20 21 21 22 23 24
18 19 19 20 19 20 21 22 23 24 24 24 23 23 23 22 21 22 22 21 21 22 23 23 22 21 20 19 19 18 16 15 15 14 13 14 14 14 14 15 15 15 15 14 13 13 14 15 16 16 16 16 17 17 17 18 18 19 19 19 19 19 19 19 18 18 17 17 16 17 17 17 17 17 17 17 17 18 18 19 20 21 22 23 24
19 19 19 20 19 20 21 22 22 23 22 22 22 22 21 21 20 20 20 20 20 20 21 21 20 19 18 18 17 16 15 15 14 12 12 13 13 14 14 14 14 14 14 14 13 12 13 14 15 15 16 16 16 16 16 16 17 17 18 18 18 18 17 17 16 15 14 14 14 15 15 15 15 15 16 16 16 17 18 19 20 21 22 23 24
19 19 19 20 19 19 20 20 20 21 20 20 21 21 20 20 19 18 18 18 18 18 17 17 17 17 16 15 15 14 14 14 13 12 11 12 13 13 13 14 14 14 13 13 12 12 12 13 14 15 15 16 16 15 15 14 15 15 16 17 17 16 15 15 14 13 12 12 13 13 13 13 14 14 15 15 16 16 17 18 19 20 21 22 23
18 18 18 19 19 19 19 19 19 19 18 18 19 19 19 19 18 17 16 16 16 15 14 13 14 14 13 13 12 12 12 12 11 11 10 10 11 12 12 13 14 14 13 12 12 12 11 11 13 14 14 15 15 14 14 13 13 13 14 15 15 14 14 13 12 11 11 11 11 11 12 12 13 13 14 14 15 16 17 18 19 19 20 21 22
18 18 18 18 19 18 18 18 17 17 17 16 16 17 17 17 17 16 15 14 14 13 12 10 10 10 10 10 10 10 10 9 10 11 9 8 9 11 11 11 13 14 12 12 12 11 11 10 11 12 13 14 14 13 12 11 10 10 11 12 12 12 12 11 10 9 9 9 9 10 11 12 12 12 13 14 15 16 16 17 18 19 20 21 22
18 18 18 18 18 18 18 17 16 16 15 14 14 15 15 15 15 15 14 13 13 12 11 9 8 8 8 8 8 8 8 7 8 10 9 6 6 9 11 10 11 13 12 11 11 11 10 9 10 11 12 13 13 13 11 9 8 8 8 9 10 10 9 8 8 7 7 8 9 10 11 11 12 13 14 14 15 16 17 17 18 18 19 20 21
18 19 18 18 18 18 17 17 16 15 15 13 13 13 13 13 13 13 12 11 11 11 10 8 7 6 6 6 7 7 6 5 7 9 8 6 4 5 9 9 9 11 12 11 11 11 10 9 9 9 10 11 12 12 10 8 7 6 5 6 7 7 7 6 6 6 7 8 9 10 11 12 12 13 14 14 15 16 17 17 17 18 19 20 21
18 19 18 18 17 17 17 16 15 14 14 13 12 11 11 11 11 11 10 9 9 9 9 7 6 6 5 6 6 6 5 4 6 8 7 5 3 3 7 9 8 9 10 11 10 10 10 9 8 8 9 10 11 10 8 7 6 5 4 4 5 5 5 5 5 6 6 7 8 10 11 12 12 13 13 14 15 16 17 17 18 18 19 20 21
17 18 18 17 17 16 16 16 15 14 13 12 11 11 10 10 9 9 8 7 7 8 7 6 5 5 4 5 5 6 5 4 6 8 8 5 3 4 6 7 7 7 9 9 9 8 9 8 8 7 8 9 10 9 7 6 5 4 3 3 3 3 4 4 5 5 6 7 8 9 11 12 12 13 14 14 15 16 17 18 18 19 19 20 21
17 17 16 16 16 16 16 16 15 15 13 12 11 11 10 9 9 8 7 6 6 6 6 4 4 4 4 4 5 5 5 5 6 7 8 6 4 5 6 6 6 6 8 9 8 7 7 7 7 7 7 7 8 7 6 5 4 3 2 2 2 2 3 4 5 5 6 7 8 9 11 12 13 14 14 15 16 17 18 18 19 19 19 20 22
17 16 15 15 15 15 15 15 15 15 14 13 11 11 10 9 8 7 6 6 6 6 5 4 4 5 4 4 5 5 5 6 7 7 7 7 6 6 7 6 5 5 7 8 8 7 7 6 6 6 6 6 5 5 4 4 3 3 2 1 1 2 3 4 5 6 7 8 9 10 11 13 14 15 16 16 17 17 18 18 19 19 19 21 22
18 17 16 15 14 14 14 13 13 13 13 12 12 11 10 8 8 7 6 6 6 6 6 5 5 5 5 5 6 6 6 6 8 8 8 8 7 7 7 6 5 5 6 8 8 7 6 5 5 6 5 4 3 3 2 1 1 1 1 0 2 3 4 6 7 7 8 9 10 11 12 14 15 16 17 17 18 18 18 18 18 19 20 21 23
18 17 17 15 14 13 12 12 12 12 11 11 11 10 9 9 8 8 7 7 6 6 6 6 6 6 5 6 7 6 5 6 8 9 9 8 8 8 7 5 4 4 5 7 7 7 6 5 4 5 4 3 2 1 0 0 1 2 2 2 3 4 5 7 8 9 9 10 11 12 13 14 15 16 17 18 18 17 17 17 17 18 20 21 23
17 17 17 16 15 14 13 12 12 11 10 10 10 10 9 9 9 9 8 8 7 6 6 6 6 6 6 6 7 7 6 6 7 8 9 8 8 8 7 6 5 3 3 4 6 6 5 4 4 4 3 2 1 1 1 2 2 2 3 3 3 5 6 7 8 9 10 10 11 12 14 14 16 17 18 18 18 17 16 16 17 18 20 22 24
15 15 15 16 16 15 14 13 12 12 11 10 10 10 9 9 9 9 9 8 7 6 6 6 6 6 6 6 6 7 7 6 6 7 7 7 7 7 7 6 5 3 2 2 4 5 5 4 4 4 3 3 2 2 2 3 3 3 4 4 4 5 6 7 9 9 10 11 11 13 14 15 16 17 18 18 17 16 16 16 17 19 21 22 24
13 13 14 14 14 14 14 13 12 12 11 10 10 10 10 9 8 9 9 8 8 7 7 7 6 6 6 6 6 6 7 8 8 8 7 7 7 6 6 7 6 5 3 2 2 4 4 4 4 4 4 4 3 3 4 4 4 4 4 5 5 6 7 8 9 9 10 11 12 13 14 15 17 17 17 17 16 16 16 16 17 19 21 23 24
13 13 13 12 12 12 12 12 11 11 10 10 9 9 9 9 8 8 8 7 7 7 7 6 6 6 5 5 6 6 6 7 8 9 9 9 8 7 7 7 7 6 5 4 3 4 4 4 4 5 5 5 5 5 5 5 6 6 6 6 6 6 7 8 9 10 11 12 13 14 15 16 17 17 16 16 15 15 16 17 18 20 21 23 24
13 13 13 12 12 11 11 10 10 10 9 9 8 8 8 8 8 7 7 6 6 6 6 6 6 6 5 5 6 6 6 6 6 7 8 9 9 8 8 8 8 7 7 6 5 5 5 5 5 5 6 6 6 6 6 6 7 7 6 6 6 7 7 8 9 10 11 12 14 15 16 16 16 16 15 15 15 15 16 17 19 20 22 22 23
11 12 13 12 12 11 11 11 10 9 9 8 8 8 8 7 7 7 6 6 5 5 5 5 5 5 5 5 6 6 6 6 6 7 7 9 9 8 8 8 8 8 8 7 6 6 7 7 7 7 8 7 7 7 6 6 6 7 7 7 7 7 7 8 9 11 12 14 15 16 16 15 14 14 15 15 15 16 17 18 20 21 22 22 23
11 11 12 12 12 12 11 11 10 10 9 9 8 8 8 7 7 6 6 6 5 5 5 5 4 4 5 5 5 6 6 6 6 7 8 8 8 9 8 8 9 8 8 8 7 7 7 7 7 8 8 7 7 7 6 6 7 7 7 8 8 8 9 10 11 12 14 16 17 17 16 15 13 14 14 15 16 17 18 20 21 22 22 22 23
11 11 11 11 11 11 11 10 10 9 9 9 9 8 8 7 7 7 7 7 6 6 6 6 5 5 5 5 5 5 6 6 6 6 7 7 8 9 9 9 9 9 8 8 8 8 8 7 8 8 7 6 8 8 7 7 8 8 8 9 9 10 11 12 13 14 15 16 17 16 16 15 14 14 15 16 17 17 19 20 21 22 21 21 22
11 10 10 10 9 10 10 10 9 9 8 8 8 8 8 8 8 8 8 7 7 7 7 7 7 6 6 6 6 6 6 7 7 7 7 7 7 8 9 8 8 8 9 9 8 8 9 9 8 7 7 7 8 8 8 8 9 9 9 10 10 11 12 12 13 13 14 15 15 15 14 14 14 15 17 18 19 19 19 20 21 21 20 20 21
11 11 10 9 9 8 8 8 9 9 8 8 8 7 7 7 7 7 7 7 7 7 7 7 8 7 7 7 7 7 7 8 8 8 8 8 8 8 9 8 9 9 10 10 9 9 10 10 8 6 7 8 8 8 9 9 9 9 10 10 10 11 11 12 12 12 13 13 13 13 14 14 16 17 18 19 19 19 18 19 19 19 19 19 21
12 11 10 10 9 9 8 8 8 9 9 8 8 8 8 8 7 7 7 7 6 6 6 7 7 8 8 8 8 8 8 9 8 8 8 8 8 9 8 8 9 10 11 11 11 10 11 11 9 8 8 9 9 9 9 10 10 10 11 11 11 11 11 11 11 11 11 11 12 12 14 16 17 18 18 18 18 17 16 16 16 17 17 18 20
12 12 11 10 9 9 9 9 9 9 9 9 9 9 9 9 8 8 8 8 7 6 6 6 6 6 7 7 8 8 9 9 9 9 9 9 9 9 8 8 9 10 11 12 12 11 11 11 11 10 10 9 10 10 10 10 11 11 11 12 12 12 11 11 11 11 12 12 13 14 15 16 16 16 15 15 16 15 15 15 15 15 16 18 20
14 13 12 11 10 10 10 10 9 9 10 10 10 10 10 10 10 10 9 9 9 8 7 6 6 6 6 6 7 7 8 9 9 9 9 9 9 9 9 9 9 10 11 11 12 12 12 12 12 12 11 10 11 12 11 11 11 12 12 12 11 11 10 11 12 13 14 15 16 16 16 14 13 13 12 13 14 15 16 16 16 17 18 19 19
16 14 13 12 12 12 11 10 10 10 10 10 11 11 11 11 11 11 11 11 11 10 9 8 7 7 6 6 6 6 7 8 9 10 10 10 10 10 10 9 9 9 10 11 11 11 12 12 12 11 11 11 11 12 11 10 10 11 11 10 10 11 11 13 14 15 16 17 17 16 15 13 12 12 12 13 14 16 17 18 18 19 19 19 19
17 15 14 13 13 13 12 11 11 10 10 10 11 11 11 12 12 12 12 11 12 12 11 11 10 9 8 8 7 7 7 8 8 9 9 10 10 10 10 9 9 9 10 10 10 10 11 11 11 10 10 10 10 11 9 7 8 9 10 10 11 13 14 14 16 17 17 17 16 15 14 13 13 14 15 15 15 17 18 18 19 19 19 19 17
17 17 15 15 15 14 14 13 12 11 11 11 11 11 11 11 11 11 11 11 11 12 12 12 12 12 11 10 10 9 9 9 9 9 9 9 10 10 9 9 9 9 9 9 9 9 10 9 9 9 9 8 8 9 8 7 8 10 11 12 14 15 15 15 16 17 16 15 15 15 15 15 14 16 17 17 17 18 19 19 19 19 18 17 16
18 17 17 16 16 15 15 15 14 13 12 12 12 11 10 10 10 10 11 11 11 11 11 12 13 13 13 13 12 12 12 11 11 11 11 11 11 10 10 9 9 9 9 9 9 9 9 9 9 8 8 8 9 10 10 10 11 12 12 12 14 15 15 15 16 16 16 15 15 15 16 14 14 16 18 18 19 19 19 20 20 19 18 16 15
19 19 18 17 16 16 16 16 15 15 14 14 13 12 11 10 10 10 10 10 10 10 11 12 12 13 14 14 15 15 14 14 14 14 14 13 13 13 12 12 11 11 10 10 10 10 10 10 11 11 11 11 12 12 13 13 12 12 12 12 13 15 15 15 17 17 16 15 15 15 15 14 13 15 18 19 20 20 20 20 20 20 18 16 15
21 22 22 20 18 17 17 17 17 16 16 16 16 14 13 12 11 10 10 10 10 10 10 11 12 12 13 14 15 16 16 16 16 15 15 15 16 16 15 15 15 14 13 13 13 13 13 13 14 14 14 14 14 13 13 13 12 11 12 12 13 14 15 15 17 18 15 13 14 16 17 15 14 16 18 19 20 21 21 21 21 20 19 17 15
24 24 24 23 21 19 18 18 18 18 19 19 19 17 16 14 13 13 12 11 11 11 11 11 12 12 13 13 14 15 16 18 18 18 17 17 17 17 17 17 18 17 17 16 16 16 16 16 16 16 16 15 14 13 13 12 12 12 13 13 14 14 14 15 17 19 17 14 13 17 20 18 15 17 20 20 20 22 22 22 22 21 20 19 16
27 26 24 23 23 22 21 20 20 20 22 22 22 20 19 18 17 16 15 14 14 13 13 13 13 13 13 14 14 14 15 17 18 19 19 19 19 19 19 19 19 18 18 18 18 18 18 18 18 17 17 16 15 14 13 13 13 13 14 15 14 14 14 15 17 20 20 17 14 14 19 21 17 17 19 21 21 23 24 23 23 23 22 20 18
28 27 26 24 23 23 24 23 23 23 24 24 24 23 22 21 20 19 18 17 16 16 15 15 15 15 15 15 15 16 16 16 17 18 19 20 21 20 20 20 19 19 19 19 19 19 18 18 18 18 17 16 16 16 15 14 14 15 15 16 16 15 16 16 18 20 22 20 16 13 15 19 19 17 19 22 22 24 25 25 24 24 23 22 20
29 28 27 26 26 26 26 26 26 26 26 26 26 25 25 24 24 23 21 20 19 18 17 17 17 17 16 16 16 17 17 17 17 17 18 19 20 20 20 20 20 20 20 19 19 19 19 18 19 19 19 17 17 18 17 16 16 17 18 18 18 18 18 19 19 21 23 23 20 16 15 18 20 19 20 23 24 25 26 27 26 25 24 23 21
31 30 28 27 28 28 28 28 27 26 26 26 26 26 27 27 27 26 24 23 21 20 19 18 18 18 18 17 17 17 18 18 19 19 19 19 19 18 19 19 20 20 19 20 20 20 20 19 19 20 20 19 18 19 20 19 19 20 20 20 21 21 21 21 21 22 25 25 24 20 18 20 23 22 22 24 25 26 28 28 27 26 25 24 23
32 32 32 31 30 30 30 29 28 27 26 26 26 28 29 30 30 29 27 25 23 22 20 20 19 19 19 18 18 18 18 19 20 21 21 21 20 19 19 19 19 19 19 20 21 21 21 21 21 21 21 21 21 21 22 22 22 22 22 21 22 24 23 22 22 24 26 27 28 26 22 22 25 25 25 26 26 27 29 30 29 27 26 24 24
31 33 34 34 33 33 32 30 29 27 26 27 29 31 32 32 32 30 29 27 26 25 23 23 22 21 21 20 20 19 19 20 22 22 23 23 22 22 22 21 20 19 19 21 23 22 22 23 22 22 22 23 23 23 24 25 25 25 24 23 25 26 26 24 25 26 27 29 31 31 27 26 28 27 27 28 28 28 29 30 30 28 27 26 25
31 33 35 36 35 34 33 32 30 29 29 30 33 33 33 33 31 30 30 30 29 28 27 27 26 25 24 23 23 22 22 22 23 24 24 24 23 23 24 24 23 20 21 25 27 26 25 25 24 24 24 24 25 26 26 27 28 28 26 26 28 29 28 28 29 29 29 30 33 35 32 30 31 31 30 29 28 29 30 30 30 29 28 27 26
32 33 35 35 35 35 34 32 31 32 33 34 35 34 34 34 33 32 32 31 31 30 30 30 29 28 26 26 25 25 24 25 26 26 26 25 24 24 24 25 23 22 25 29 30 29 28 28 27 27 27 27 27 28 28 29 30 31 29 29 30 32 31 31 32 32 30 30 35 38 36 33 32 33 33 30 27 28 30 30 30 29 29 28 28
Wind_Direction
90 89 87 85 87 90 92 95 100 103 106 107 110 112 113 115 116 116 116 116 118 119 120 119 118 117 115 115 114 114 112 111 109 108 106 105 103 102 101 100 98 98 97 96 95 93 93 92 91 89 87 86 84 83 82 83 84 85 85 85 86 86 85 84 83 82 81 81 80 79 78 77 76 75 73 71 69 68 66 63 61 60 58 56 54
92 92 91 90 91 93 94 96 100 101 101 104 107 109 110 110 112 113 114 115 117 118 118 116 116 114 113 112 112 111 110 109 109 108 107 105 104 103 103 103 102 101 99 97 95 94 94 92 90 88 86 85 83 83 83 85 86 86 87 88 88 88 87 86 84 81 78 78 78 78 77 76 74 72 70 69 67 65 64 62 60 59 57 56 54
95 95 95 96 96 97 98 99 101 101 102 106 109 110 109 108 109 111 114 115 116 115 114 113 112 111 111 111 111 110 110 109 109 108 107 107 106 106 106 106 105 102 99 97 96 95 94 91 88 86 84 84 83 84 86 87 88 88 90 90 90 89 88 87 84 79 76 76 77 77 76 74 71 69 67 66 65 63 62 61 59 58 56 55 53
98 98 100 102 102 100 101 102 102 102 105 109 110 109 107 107 108 111 113 113 113 112 111 110 109 110 111 111 111 110 109 109 109 108 108 107 108 108 108 107 105 102 99 98 97 96 93 90 87 85 85 84 85 86 87 88 90 91 93 93 92 91 90 89 85 81 79 77 76 75 73 71 69 67 66 65 64 62 61 59 58 56 54 52 50
101 102 103 105 104 102 102 102 101 103 106 108 108 108 108 109 111 112 112 110 108 108 108 108 108 109 110 110 109 107 107 107 107 107 106 107 108 108 107 106 103 101 99 99 98 96 92 89 88 86 85 85 86 87 89 91 93 95 96 95 94 92 91 90 86 84 82 79 76 74 72 70 68 67 66 64 63 61 60 58 56 54 52 50 48
104 105 106 106 104 103 102 98 98 103 107 109 110 110 112 112 113 112 109 107 106 107 108 107 106 106 106 106 105 104 104 106 105 105 106 107 107 107 106 104 101 100 100 100 99 96 92 90 88 87 86 86 87 90 92 94 96 98 98 97 95 92 91 88 85 83 81 78 75 72 71 69 67 66 65 63 62 60 58 57 55 53 50 48 46
104 105 105 105 103 101 99 97 100 105 109 112 113 113 113 112 111 110 108 107 107 106 105 104 102 102 103 104 103 103 103 104 104 105 105 106 106 106 104 103 101 100 100 101 99 97 94 91 88 86 85 86 89 93 95 97 99 100 99 98 96 93 91 87 84 81 78 76 73 72 70 69 67 66 64 62 61 60 58 56 54 52 50 47 45
103 104 104 104 103 101 98 99 104 109 112 113 114 114 112 111 110 109 108 106 104 102 102 102 101 102 103 103 100 99 100 101 102 102 104 104 104 103 103 103 103 102 102 102 101 98 96 93 89 87 86 87 91 95 98 100 102 102 101 99 97 94 91 88 84 81 78 76 74 72 70 69 67 65 63 62 60 58 57 55 53 51 49 46 43
106 106 107 107 106 104 102 105 109 112 112 112 113 112 110 108 108 108 105 102 100 99 99 99 99 100 100 98 96 96 98 100 100 100 101 103 102 102 103 104 104 104 105 105 102 98 96 94 91 89 88 90 94 98 101 104 105 104 103 100 97 95 92 88 85 82 80 78 75 73 71 68 65 63 61 59 57 55 53 52 49 47 45 43 41
111 109 110 110 110 108 108 111 113 113 112 112 111 110 108 108 107 106 103 100 98 97 96 95 96 97 97 95 94 95 96 96 96 97 100 101 101 102 104 104 104 105 107 107 103 98 96 95 93 91 91 94 98 101 104 107 108 106 104 100 97 95 92 89 87 84 82 79 76 72 69 66 63 60 58 55 53 51 49 47 44 42 40 38 36
113 111 112 113 112 112 113 115 115 114 113 112 112 110 110 110 109 107 104 101 99 96 94 95 96 97 96 95 94 94 94 92 91 95 99 100 101 104 106 106 106 107 108 107 104 99 97 95 93 93 95 98 100 103 106 109 110 108 105 101 97 95 92 90 87 84 81 77 72 68 65 62 59 57 54 51 48 46 45 43 41 38 35 33 31
116 114 115 115 114 115 116 117 116 115 114 114 112 110 110 110 109 108 106 103 99 96 95 96 97 96 95 93 93 93 91 88 89 92 96 100 105 108 109 109 108 109 110 109 107 103 99 96 95 95 98 101 103 105 108 111 112 110 106 102 98 96 93 91 89 84 79 73 68 63 59 56 54 51 48 45 43 42 42 40 37 34 32 29 27
118 116 117 118 117 116 117 118 118 116 115 114 113 111 110 110 111 109 107 105 101 99 98 98 96 94 92 91 90 89 86 86 87 86 89 99 107 112 114 113 111 110 111 112 110 106 100 97 97 97 100 104 106 107 109 112 113 113 110 106 102 99 96 93 89 84 77 70 64 58 54 50 46 44 41 40 39 39 39 37 35 32 30 27 25
122 119 120 121 120 118 116 117 119 118 116 115 113 113 113 112 112 111 108 107 106 103 101 99 95 92 91 89 86 85 85 85 84 82 84 95 107 113 115 115 114 112 114 115 113 109 103 97 96 99 102 106 108 108 110 113 116 116 113 110 106 103 99 94 88 80 73 65 59 53 48 44 40 38 37 36 36 37 37 36 34 31 28 26 24
127 125 125 125 124 122 119 118 119 119 118 116 115 115 115 114 114 114 112 111 110 108 105 100 97 96 93 90 84 82 84 85 84 84 84 89 103 115 119 119 117 116 118 120 116 111 105 97 93 97 103 107 108 108 109 113 117 117 114 111 107 104 100 94 85 76 66 58 51 45 40 36 34 33 32 32 32 33 34 34 32 29 27 25 24
131 129 129 129 127 125 123 122 120 120 120 119 119 117 114 114 115 116 116 117 117 114 111 105 100 97 94 92 89 85 84 83 83 86 88 89 100 116 121 122 120 119 123 126 121 116 109 99 92 94 100 105 109 109 109 111 113 114 112 108 105 101 98 91 81 68 55 45 38 33 29 27 26 26 27 27 27 28 29 29 28 26 25 24 22
132 131 130 130 129 127 126 126 124 123 123 123 123 120 115 115 116 116 118 121 121 117 115 113 106 98 91 87 89 93 93 80 79 88 92 90 94 113 117 120 122 122 127 130 126 122 116 106 97 95 99 103 107 108 109 108 106 104 101 97 93 91 89 83 72 56 43 34 28 23 22 19 19 19 20 22 23 24 25 24 23 22 22 20 19
132 132 133 132 130 129 128 127 127 126 126 126 125 122 118 116 116 118 121 123 122 119 117 117 115 109 100 92 89 93 99 85 81 92 96 89 85 102 109 115 121 123 130 134 132 128 123 117 110 103 101 103 104 106 107 107 103 98 88 78 72 71 71 67 58 47 36 27 22 18 16 14 12 12 14 17 19 19 19 19 18 18 18 17 16
133 134 135 133 130 129 130 129 128 127 128 127 124 122 119 118 118 121 124 123 121 121 118 118 117 110 98 91 91 94 99 94 90 99 106 100 92 102 107 112 118 127 133 133 133 131 128 128 125 116 108 102 100 103 108 111 109 102 88 70 57 47 42 40 38 35 29 22 17 13 11 8 7 8 9 12 14 15 15 14 14 15 15 14 13
134 135 135 133 130 130 131 130 130 129 129 128 125 123 121 122 123 123 123 122 118 116 114 114 111 103 92 79 81 91 97 95 95 103 113 116 116 118 116 114 120 132 135 134 139 141 138 141 138 126 112 101 99 104 111 119 123 116 103 74 43 23 14 11 13 17 17 15 12 8 6 5 6 6 7 9 10 11 12 12 12 13 13 13 12
134 135 135 134 132 131 131 132 131 131 130 130 128 127 126 127 126 124 126 125 119 117 115 111 103 98 96 86 80 87 97 100 102 108 117 126 134 136 132 131 137 145 140 138 147 152 152 156 148 131 115 104 103 104 109 123 136 140 135 89 5 358 350 347 352 359 4 6 6 5 5 4 4 4 4 6 7 8 9 10 11 11 12 12 11
134 135 137 136 134 133 133 133 133 133 134 133 134 135 135 135 132 131 134 131 125 124 122 116 106 99 98 97 92 90 97 106 112 120 128 134 143 150 150 148 153 157 147 146 155 158 162 172 156 134 122 112 104 98 102 128 164 194 194 263 327 337 337 337 342 349 355 359 1 2 2 1 360 360 1 3 4 5 7 9 10 11 11 11 9
133 135 136 137 138 137 137 139 138 139 140 140 140 141 143 143 140 138 136 135 135 133 126 120 114 109 104 103 99 93 97 111 122 131 137 140 146 154 159 152 151 163 160 157 160 158 168 184 163 139 136 134 130 129 83 297 263 267 270 292 313 323 330 334 337 341 347 351 355 355 355 355 355 356 357 359 2 4 7 10 10 10 9 7 4
135 135 136 138 140 140 142 143 143 143 144 143 142 142 144 144 142 139 136 137 141 138 129 125 121 118 115 113 110 105 104 114 126 133 139 145 149 154 159 151 145 163 175 162 158 156 173 186 162 145 153 169 199 224 282 292 281 282 288 294 304 313 322 329 332 335 340 344 347 348 348 349 351 353 355 358 2 5 8 11 10 8 5 2 359
138 138 139 140 139 140 142 143 142 142 143 143 142 141 142 142 141 139 138 141 142 138 132 129 126 124 122 120 118 117 119 124 125 125 130 141 148 155 159 154 151 164 179 167 159 161 175 180 163 160 174 193 232 257 280 292 298 299 296 296 301 309 318 323 328 331 335 338 340 341 343 345 348 351 354 358 2 6 9 10 8 5 1 358 355
145 144 144 144 142 142 143 143 143 142 143 144 143 140 139 139 139 138 138 140 139 135 133 130 128 127 126 124 123 127 134 138 138 136 136 142 148 159 164 163 165 168 171 179 175 172 179 178 167 174 191 209 237 260 278 293 305 308 306 307 309 313 317 321 325 328 331 334 337 338 340 343 347 350 354 358 2 5 7 6 4 1 358 354 352
155 154 154 152 149 148 148 147 147 147 147 147 144 139 138 139 140 138 137 138 137 135 133 131 127 126 127 130 129 133 141 148 151 152 154 158 160 165 169 173 176 171 169 179 187 185 188 191 186 190 198 214 234 252 269 286 298 305 311 315 315 317 319 320 324 328 330 333 335 337 340 343 346 350 355 358 1 2 2 1 359 358 355 351 348
168 166 164 162 159 159 158 156 156 158 159 158 154 149 149 151 150 145 143 142 140 139 137 135 131 129 132 134 134 135 142 152 161 162 162 165 167 169 170 175 180 177 174 181 188 187 190 198 206 209 210 219 233 245 260 275 290 300 308 312 314 316 319 321 325 328 330 332 334 337 341 344 345 350 356 359 359 358 357 356 355 354 352 348 345
180 176 172 171 170 170 171 169 169 172 172 171 170 169 168 168 166 162 161 160 158 155 151 146 143 139 140 143 145 145 146 155 163 164 167 171 173 175 175 177 184 186 184 187 191 193 196 201 207 215 219 223 233 243 255 268 284 297 305 311 316 319 321 325 328 329 330 332 335 339 346 351 351 352 355 356 355 353 353 353 353 353 351 346 342
186 182 177 175 174 176 178 177 178 181 183 184 186 188 188 185 184 184 185 185 183 182 179 173 167 159 155 158 160 157 155 161 165 164 171 179 179 181 183 184 189 192 193 193 194 200 208 214 219 225 229 232 241 250 260 272 283 292 301 309 315 319 323 325 327 328 330 332 336 342 350 357 358 355 353 352 351 350 350 351 351 350 349 344 340
186 184 179 176 176 175 176 177 180 183 188 191 193 196 197 195 196 200 203 204 204 204 203 199 195 192 185 179 177 174 170 171 172 170 174 181 186 190 195 196 196 198 200 201 201 207 215 221 229 235 239 242 250 258 266 273 278 285 294 300 305 310 315 318 322 326 329 331 336 342 350 356 356 353 350 348 347 347 348 349 348 348 348 343 339
187 186 182 181 182 181 179 178 180 183 187 192 194 196 198 198 199 203 206 210 211 211 211 210 208 210 210 203 197 194 190 185 181 180 180 183 189 199 207 207 205 204 207 211 211 213 220 227 231 232 235 243 252 262 269 273 276 282 288 292 297 302 307 313 319 324 328 331 335 341 346 348 347 345 344 343 343 343 344 346 346 346 347 342 338
189 189 189 190 193 194 194 191 188 188 191 195 197 198 202 203 202 203 206 211 214 214 213 212 212 214 218 219 213 207 204 202 195 189 189 189 192 203 212 214 211 210 213 220 221 216 223 236 239 230 234 247 256 262 268 274 280 286 290 293 298 302 308 314 318 323 327 330 332 335 337 337 337 338 338 337 336 337 339 342 343 344 345 340 336
194 194 195 199 203 204 207 208 205 199 197 199 202 203 206 208 208 207 206 211 215 217 213 208 209 212 215 219 222 218 213 213 211 203 198 197 197 206 215 218 218 218 219 226 230 224 227 241 250 243 244 254 263 267 269 275 282 288 294 299 305 309 314 318 320 322 324 325 325 326 328 329 330 332 330 329 330 331 334 339 341 342 341 337 335
201 200 201 206 212 214 214 216 217 212 205 204 206 207 209 211 214 212 209 210 214 218 218 213 210 213 214 214 218 220 218 219 222 218 212 208 205 209 216 223 225 225 226 229 235 235 235 244 255 258 259 263 269 275 279 283 289 294 299 303 309 313 317 318 317 317 316 315 316 320 324 326 327 328 327 327 328 329 332 339 341 341 339 336 336
209 206 207 212 218 222 222 220 220 219 213 208 207 209 211 212 214 215 212 211 214 217 218 219 218 217 218 216 215 216 216 219 224 225 224 222 218 216 217 224 228 230 233 235 238 242 242 244 251 258 264 265 269 277 284 288 293 298 301 304 310 314 315 314 313 312 312 313 318 323 328 330 331 333 332 331 332 332 333 338 340 339 339 338 339
218 213 211 216 220 225 227 226 224 221 218 212 208 208 211 213 215 215 214 212 213 216 217 216 217 216 217 218 215 214 214 217 222 225 225 227 228 227 225 226 229 232 238 242 244 247 248 249 253 257 262 265 269 277 284 289 293 296 298 304 309 310 310 310 309 308 311 315 321 327 331 331 331 329 328 329 330 328 330 333 335 337 338 339 340
226 222 217 218 223 227 228 228 228 225 221 218 213 209 210 213 215 216 216 214 213 215 217 217 216 215 215 215 213 213 214 214 218 222 225 227 231 235 236 235 234 234 239 245 247 249 252 255 258 260 263 267 272 279 285 290 292 294 299 307 307 303 303 303 303 305 310 315 321 326 326 325 325 323 322 325 326 326 328 332 334 336 339 339 339
230 233 229 224 224 227 229 229 229 228 225 223 220 217 213 213 215 218 220 219 218 218 219 218 219 218 216 216 215 215 215 212 213 217 221 225 229 233 237 238 238 237 240 244 246 249 253 256 260 260 261 263 267 277 286 289 288 291 297 300 298 297 299 299 300 304 310 315 320 322 320 322 324 322 322 325 328 329 331 334 336 338 340 339 338
223 231 235 235 231 229 229 231 232 230 228 226 225 224 221 216 216 217 220 222 223 224 225 224 224 223 222 221 220 219 219 219 218 218 219 222 226 229 231 234 237 239 241 243 243 246 250 254 259 261 263 265 267 275 284 288 289 290 291 290 288 291 297 299 301 306 312 317 320 319 318 323 323 319 321 326 329 332 334 336 338 339 340 339 336
219 223 229 235 238 237 234 233 235 235 234 232 230 228 226 223 219 217 217 219 221 223 228 231 231 229 227 226 225 225 225 225 226 226 226 226 228 231 233 235 238 241 244 246 247 250 253 256 262 266 269 271 275 279 284 287 288 287 286 284 283 289 297 299 303 310 316 320 321 318 320 327 326 320 322 327 329 332 335 335 336 339 340 338 334
223 222 222 224 229 235 238 238 238 239 240 239 236 232 231 228 226 222 218 218 219 221 225 230 235 236 234 232 230 229 229 229 230 231 232 233 234 236 237 239 242 245 248 250 252 254 256 258 262 266 269 272 276 279 281 282 282 280 280 282 284 290 296 297 300 308 316 322 322 318 318 326 330 324 324 327 327 328 331 332 333 336 338 336 332
224 223 224 223 222 222 226 232 236 240 242 242 239 235 234 232 230 228 223 219 219 221 223 227 233 238 239 239 236 234 232 232 233 234 235 236 237 238 239 240 243 246 248 250 252 254 256 258 261 264 266 268 270 272 273 274 275 273 275 279 283 287 290 289 291 297 306 316 319 315 312 316 323 322 319 322 323 323 325 327 328 331 334 333 329
227 225 224 226 227 224 221 223 228 234 239 241 240 237 235 234 232 231 228 225 222 222 224 226 230 235 239 242 241 240 238 236 235 235 236 237 238 238 239 240 243 245 247 249 251 253 255 258 260 262 262 263 264 265 266 268 270 269 270 274 278 280 282 281 283 287 292 300 306 306 302 303 309 314 312 314 317 317 318 321 323 324 327 328 326
231 229 225 225 227 229 227 224 224 228 233 237 239 239 237 236 236 235 234 231 229 228 228 228 230 232 236 240 243 244 245 243 241 238 237 238 239 239 239 240 242 245 247 248 250 252 254 256 259 260 259 259 260 263 265 266 267 266 266 269 271 273 273 273 275 278 281 287 291 290 286 289 296 304 305 307 311 311 312 314 316 317 318 320 321
230 230 228 226 225 226 229 230 228 228 231 234 237 238 239 239 238 237 237 236 235 234 234 234 235 237 238 240 244 247 250 252 251 249 245 243 242 242 242 242 243 244 245 248 250 251 252 253 256 258 257 254 255 260 264 263 263 265 267 269 270 270 269 269 272 273 275 279 282 278 274 279 287 295 298 301 305 306 306 308 310 310 311 312 314
232 231 230 229 227 225 226 231 233 234 235 236 238 240 241 241 240 238 238 239 239 240 240 241 242 244 246 247 250 253 255 257 258 258 257 254 250 248 247 246 245 245 246 248 250 252 253 252 251 253 254 253 253 258 262 263 262 264 266 268 270 270 269 270 271 272 274 277 278 274 270 275 281 287 292 296 299 301 301 302 302 303 304 305 307
236 235 232 230 230 229 227 228 232 236 239 241 243 243 243 244 243 241 238 238 240 242 245 247 248 250 252 254 255 257 259 261 261 261 262 262 261 258 255 252 250 249 250 251 251 250 251 250 248 249 251 254 255 257 261 263 264 265 266 267 268 268 268 269 270 271 274 277 278 277 274 275 278 283 288 291 294 296 296 296 297 298 299 301 302
239 240 236 232 232 232 232 231 230 232 237 241 243 244 244 244 245 246 244 241 238 239 241 244 246 247 250 252 253 255 258 260 263 263 264 265 266 266 265 262 259 257 257 258 257 253 251 249 248 248 251 254 257 259 262 264 265 266 267 267 267 268 269 269 269 269 273 276 279 280 280 280 281 283 286 289 291 292 292 292 294 296 298 299 299
242 242 238 235 234 234 235 236 235 234 235 238 241 244 246 246 246 246 247 246 244 241 240 240 241 242 244 246 248 250 252 254 257 260 262 263 264 266 267 267 267 266 263 261 260 258 256 255 252 251 252 253 257 259 262 264 265 265 265 266 266 268 270 271 271 272 274 276 279 281 282 283 285 287 288 289 290 292 291 291 293 295 296 297 297
244 243 239 235 235 235 236 239 240 238 237 239 241 242 244 246 247 245 245 245 246 245 243 243 243 244 245 248 250 251 252 254 255 256 258 259 260 261 262 263 265 265 264 263 263 262 261 260 258 257 256 257 258 260 262 263 264 265 264 264 265 267 269 271 273 276 277 277 278 281 282 284 286 287 288 288 288 289 289 289 290 291 291 292 293
Height
5938 5937 5937 5936 5936 5935 5936 5936 5937 5938 5938 5938 5938 5938 5938 5938 5939 5939 5939 5940 5941 5941 5942 5943 5944 5944 5944 5945 5946 5948 5949 5949 5950 5951 5951 5952 5952 5952 5952 5953 5953 5953 5953 5953 5952 5952 5952 5952 5952 5952 5952 5952 5952 5952 5952 5952 5951 5951 5950 5950 5949 5948 5948 5948 5947 5947 5947 5946 5946 5945 5945 5944 5944 5943 5942 5941 5940 5939 5938 5937 5936 5935 5934 5933 5932
5939 5939 5939 5939 5938 5938 5938 5938 5939 5939 5939 5940 5940 5940 5940 5941 5941 5941 5942 5942 5943 5944 5944 5945 5946 5946 5947 5948 5949 5950 5951 5951 5952 5952 5953 5953 5953 5953 5953 5954 5955 5955 5954 5954 5954 5954 5954 5954 5954 5954 5954 5954 5954 5954 5954 5953 5953 5952 5952 5951 5951 5950 5950 5950 5950 5950 5950 5949 5949 5948 5947 5947 5946 5945 5944 5943 5942 5941 5940 5939 5938 5937 5936 5935 5934
5941 5941 5941 5942 5941 5941 5941 5941 5941 5941 5942 5942 5942 5943 5943 5943 5943 5944 5944 5945 5946 5946 5947 5947 5948 5949 5949 5951 5951 5952 5952 5953 5953 5954 5954 5954 5954 5955 5955 5956 5956 5956 5956 5956 5956 5956 5956 5956 5956 5956 5956 5956 5956 5956 5956 5955 5955 5954 5954 5953 5953 5952 5952 5953 5953 5953 5952 5952 5951 5951 5950 5949 5948 5947 5946 5945 5944 5943 5942 5941 5940 5939 5938 5937 5936
5942 5942 5943 5944 5944 5944 5943 5944 5944 5944 5944 5945 5945 5945 5945 5945 5945 5946 5947 5947 5948 5949 5949 5950 5951 5952 5952 5953 5953 5953 5954 5955 5955 5955 5955 5956 5956 5956 5957 5957 5958 5957 5957 5958 5958 5958 5958 5958 5958 5958 5958 5958 5958 5958 5957 5957 5957 5956 5956 5955 5955 5955 5955 5955 5955 5955 5955 5954 5954 5953 5952 5951 5951 5950 5949 5948 5947 5946 5945 5944 5943 5941 5940 5939 5938
5943 5943 5945 5946 5946 5946 5946 5946 5946 5946 5946 5946 5947 5947 5946 5947 5948 5949 5950 5951 5951 5952 5952 5953 5953 5955 5955 5955 5955 5955 5956 5957 5957 5957 5957 5957 5958 5958 5959 5959 5959 5959 5959 5959 5960 5960 5960 5960 5960 5960 5960 5960 5960 5959 5959 5959 5959 5958 5958 5957 5957 5957 5957 5958 5958 5957 5957 5957 5956 5955 5955 5954 5953 5952 5951 5950 5949 5948 5947 5946 5945 5944 5943 5942 5940
5945 5945 5946 5947 5948 5948 5948 5948 5948 5948 5948 5948 5949 5949 5949 5950 5951 5953 5953 5954 5955 5955 5956 5956 5956 5957 5958 5957 5957 5957 5958 5959 5959 5959 5959 5959 5960 5960 5960 5961 5961 5961 5961 5961 5962 5962 5962 5962 5962 5962 5962 5962 5961 5961 5961 5961 5961 5960 5960 5960 5960 5960 5960 5960 5960 5960 5959 5959 5958 5958 5957 5956 5955 5954 5953 5953 5952 5951 5950 5949 5947 5946 5945 5944 5943
5947 5947 5948 5949 5949 5949 5950 5949 5949 5950 5950 5950 5951 5952 5953 5953 5954 5955 5956 5956 5957 5958 5958 5958 5958 5959 5959 5960 5959 5959 5960 5960 5961 5960 5961 5961 5962 5962 5962 5962 5963 5963 5963 5963 5964 5964 5964 5964 5964 5964 5964 5964 5964 5963 5963 5963 5963 5962 5962 5962 5962 5962 5962 5962 5962 5962 5961 5961 5960 5960 5959 5958 5957 5957 5956 5955 5954 5953 5952 5951 5950 5948 5947 5946 5945
5949 5949 5949 5950 5951 5951 5951 5951 5952 5952 5953 5953 5954 5955 5956 5957 5957 5958 5959 5959 5959 5960 5960 5960 5960 5960 5961 5961 5961 5961 5962 5963 5963 5963 5963 5963 5964 5964 5964 5964 5964 5965 5965 5965 5966 5966 5966 5966 5966 5966 5966 5966 5966 5965 5965 5965 5965 5965 5965 5964 5965 5965 5964 5964 5964 5964 5964 5963 5962 5962 5961 5960 5959 5959 5958 5957 5956 5955 5954 5953 5952 5950 5949 5948 5946
5951 5951 5951 5952 5952 5953 5953 5954 5954 5955 5956 5956 5957 5958 5959 5960 5960 5960 5961 5961 5961 5962 5962 5961 5962 5962 5963 5963 5963 5963 5964 5965 5965 5964 5965 5965 5965 5966 5966 5966 5966 5966 5967 5967 5967 5968 5968 5967 5967 5967 5967 5968 5968 5968 5967 5967 5967 5967 5967 5967 5967 5967 5967 5967 5966 5966 5966 5965 5964 5964 5963 5962 5962 5961 5960 5959 5958 5957 5956 5955 5953 5952 5951 5949 5947
5953 5953 5953 5953 5954 5955 5955 5956 5956 5957 5958 5959 5960 5960 5961 5962 5962 5962 5963 5963 5964 5964 5964 5963 5964 5964 5965 5965 5965 5965 5966 5967 5966 5966 5967 5967 5967 5967 5967 5968 5968 5968 5968 5969 5969 5970 5969 5969 5969 5969 5969 5969 5970 5970 5969 5969 5969 5969 5969 5969 5969 5969 5969 5969 5969 5968 5968 5967 5966 5966 5965 5964 5963 5963 5962 5961 5960 5959 5958 5956 5955 5953 5952 5950 5949
5954 5954 5954 5955 5956 5957 5957 5958 5959 5959 5960 5961 5962 5962 5963 5964 5964 5964 5964 5965 5966 5966 5965 5965 5966 5967 5967 5967 5967 5968 5968 5968 5968 5968 5968 5968 5968 5969 5969 5969 5969 5969 5970 5970 5971 5972 5971 5971 5970 5971 5971 5971 5971 5971 5971 5971 5971 5971 5971 5971 5971 5971 5971 5971 5970 5970 5969 5969 5968 5967 5967 5966 5965 5964 5963 5962 5961 5960 5959 5958 5956 5955 5953 5951 5950
5956 5956 5956 5957 5958 5958 5959 5960 5961 5961 5962 5963 5964 5964 5965 5965 5966 5966 5966 5967 5967 5967 5967 5968 5968 5968 5969 5969 5969 5970 5970 5970 5970 5970 5970 5970 5970 5970 5970 5971 5971 5971 5971 5972 5972 5973 5973 5973 5972 5972 5972 5973 5973 5973 5973 5973 5973 5973 5973 5973 5973 5973 5973 5972 5972 5971 5971 5970 5970 5969 5968 5967 5966 5965 5964 5964 5962 5961 5960 5959 5957 5955 5954 5952 5951
5957 5957 5958 5958 5959 5960 5961 5962 5962 5963 5964 5965 5965 5965 5966 5966 5967 5968 5968 5969 5969 5969 5970 5970 5970 5970 5970 5971 5971 5971 5971 5971 5971 5972 5971 5971 5971 5971 5972 5972 5972 5972 5973 5973 5974 5974 5975 5974 5974 5974 5974 5974 5974 5975 5975 5975 5975 5975 5975 5975 5975 5974 5974 5974 5973 5973 5972 5972 5971 5970 5969 5968 5968 5967 5966 5965 5963 5962 5961 5959 5958 5956 5955 5953 5952
5958 5958 5959 5960 5961 5961 5962 5963 5964 5965 5965 5966 5966 5967 5967 5968 5968 5969 5970 5970 5970 5971 5971 5971 5971 5971 5972 5972 5973 5972 5972 5973 5973 5973 5973 5972 5972 5973 5973 5973 5973 5973 5974 5974 5975 5975 5976 5976 5976 5975 5975 5975 5976 5976 5977 5977 5977 5977 5976 5976 5976 5976 5976 5975 5975 5974 5973 5973 5972 5971 5970 5969 5968 5968 5967 5965 5964 5963 5962 5960 5959 5958 5956 5954 5953
5959 5960 5961 5962 5962 5963 5964 5965 5965 5966 5967 5967 5968 5968 5969 5969 5970 5970 5971 5971 5971 5971 5972 5972 5972 5972 5973 5973 5974 5974 5974 5974 5974 5973 5974 5974 5974 5974 5974 5974 5974 5974 5975 5975 5976 5976 5977 5978 5977 5977 5976 5977 5977 5978 5978 5978 5978 5978 5978 5978 5977 5977 5977 5976 5976 5975 5975 5974 5973 5972 5971 5970 5969 5968 5967 5966 5965 5964 5963 5961 5960 5959 5957 5955 5954
5960 5961 5962 5963 5964 5964 5965 5966 5967 5967 5968 5969 5969 5970 5970 5970 5971 5971 5971 5972 5972 5972 5973 5973 5973 5973 5973 5974 5974 5974 5975 5975 5975 5974 5975 5975 5976 5975 5975 5975 5975 5975 5976 5976 5977 5977 5978 5979 5979 5978 5978 5978 5978 5978 5979 5980 5980 5980 5979 5979 5978 5978 5978 5978 5977 5976 5976 5975 5974 5973 5972 5971 5970 5969 5968 5967 5966 5965 5964 5962 5961 5960 5958 5956 5954
5962 5962 5963 5964 5965 5965 5966 5967 5968 5968 5969 5970 5970 5971 5971 5971 5972 5972 5973 5973 5973 5973 5974 5974 5974 5974 5974 5974 5975 5975 5975 5976 5975 5975 5976 5976 5977 5977 5976 5976 5976 5976 5976 5977 5978 5978 5979 5979 5980 5980 5979 5979 5979 5979 5980 5981 5981 5981 5981 5980 5980 5979 5979 5978 5978 5977 5977 5976 5975 5974 5973 5972 5971 5970 5969 5968 5967 5966 5964 5963 5962 5960 5959 5957 5955
5962 5963 5964 5965 5965 5966 5966 5967 5968 5969 5969 5970 5971 5971 5971 5972 5972 5973 5974 5974 5974 5974 5975 5975 5975 5975 5975 5975 5975 5975 5976 5976 5976 5976 5977 5978 5978 5978 5978 5977 5978 5978 5978 5978 5979 5979 5979 5980 5981 5981 5980 5980 5980 5980 5981 5981 5982 5982 5982 5981 5981 5980 5980 5979 5979 5978 5977 5976 5976 5975 5974 5973 5972 5971 5970 5969 5968 5966 5965 5964 5962 5961 5959 5958 5956
5963 5964 5965 5966 5966 5966 5967 5968 5968 5969 5970 5971 5971 5972 5972 5972 5973 5974 5974 5975 5975 5975 5975 5976 5976 5976 5976 5976 5976 5976 5976 5977 5977 5977 5977 5979 5979 5980 5979 5979 5979 5979 5979 5979 5980 5980 5980 5981 5981 5981 5981 5981 5981 5981 5982 5982 5982 5982 5982 5982 5981 5981 5980 5980 5979 5978 5977 5977 5976 5975 5974 5973 5972 5971 5970 5969 5968 5967 5966 5964 5963 5961 5960 5958 5956
5964 5965 5966 5967 5967 5967 5968 5968 5969 5970 5970 5971 5971 5972 5972 5973 5973 5974 5975 5975 5975 5976 5976 5976 5976 5976 5976 5976 5976 5976 5977 5977 5977 5978 5978 5979 5980 5981 5981 5981 5981 5980 5980 5979 5980 5981 5981 5982 5982 5982 5982 5982 5982 5982 5983 5983 5983 5983 5983 5982 5982 5981 5981 5980 5979 5979 5978 5977 5976 5976 5975 5974 5973 5972 5971 5970 5969 5968 5966 5965 5963 5962 5960 5958 5957
5964 5965 5967 5967 5968 5968 5969 5969 5970 5970 5971 5971 5972 5972 5973 5974 5974 5974 5975 5976 5976 5976 5976 5976 5976 5976 5976 5977 5977 5977 5977 5978 5978 5979 5979 5980 5981 5982 5982 5981 5982 5981 5981 5980 5981 5982 5982 5982 5983 5983 5982 5982 5983 5983 5983 5983 5983 5983 5983 5983 5982 5982 5981 5981 5980 5979 5978 5978 5977 5976 5975 5975 5974 5973 5972 5971 5970 5968 5967 5965 5964 5962 5961 5959 5957
5965 5965 5967 5968 5968 5969 5969 5970 5970 5971 5971 5972 5972 5973 5973 5974 5974 5975 5976 5976 5976 5976 5976 5977 5977 5977 5977 5977 5977 5977 5978 5978 5978 5979 5980 5980 5981 5982 5982 5982 5982 5982 5982 5982 5982 5982 5983 5983 5983 5983 5983 5983 5983 5984 5984 5984 5984 5984 5983 5983 5983 5982 5982 5981 5981 5980 5979 5978 5978 5977 5976 5975 5974 5973 5972 5971 5970 5969 5967 5966 5964 5962 5961 5959 5958
5966 5966 5967 5968 5969 5969 5970 5971 5971 5971 5972 5972 5973 5973 5974 5975 5975 5976 5976 5976 5977 5977 5977 5977 5977 5977 5978 5977 5977 5978 5978 5979 5979 5979 5980 5981 5981 5982 5983 5983 5983 5983 5983 5982 5983 5983 5983 5984 5983 5983 5983 5984 5984 5984 5984 5984 5984 5984 5984 5983 5983 5983 5982 5982 5981 5981 5980 5979 5978 5977 5977 5976 5975 5974 5973 5972 5970 5969 5967 5966 5964 5963 5961 5960 5958
5967 5967 5967 5968 5968 5969 5970 5971 5972 5972 5972 5973 5973 5974 5974 5975 5975 5976 5976 5977 5977 5977 5977 5977 5977 5978 5978 5978 5978 5979 5979 5980 5980 5980 5981 5981 5982 5982 5983 5983 5983 5984 5984 5983 5983 5983 5984 5984 5984 5984 5984 5984 5985 5985 5985 5985 5984 5984 5984 5983 5983 5983 5982 5982 5982 5981 5980 5980 5979 5978 5977 5976 5975 5974 5973 5972 5970 5969 5967 5966 5964 5963 5961 5960 5958
5967 5967 5968 5968 5969 5969 5970 5971 5972 5972 5973 5973 5974 5974 5975 5975 5976 5976 5976 5977 5977 5977 5977 5978 5978 5978 5978 5979 5979 5979 5980 5981 5981 5981 5982 5982 5982 5983 5983 5983 5983 5984 5984 5984 5984 5984 5985 5985 5984 5984 5984 5985 5985 5985 5985 5985 5984 5984 5984 5983 5983 5983 5982 5982 5982 5981 5981 5980 5979 5978 5977 5976 5975 5974 5973 5971 5970 5969 5967 5966 5965 5963 5962 5960 5958
5968 5968 5969 5969 5969 5970 5970 5971 5972 5972 5973 5974 5974 5974 5975 5976 5976 5976 5977 5977 5977 5977 5978 5978 5978 5978 5979 5979 5979 5980 5980 5980 5981 5981 5982 5982 5983 5983 5984 5984 5984 5984 5984 5985 5985 5985 5985 5985 5985 5985 5985 5985 5985 5985 5985 5985 5984 5984 5983 5983 5983 5983 5982 5982 5981 5981 5980 5980 5979 5978 5977 5976 5975 5973 5972 5971 5970 5969 5968 5966 5965 5963 5962 5960 5958
5968 5969 5969 5970 5970 5970 5971 5971 5972 5972 5973 5974 5974 5974 5975 5976 5976 5977 5977 5977 5977 5977 5978 5978 5978 5978 5979 5979 5979 5980 5980 5980 5980 5981 5981 5982 5982 5983 5983 5984 5984 5984 5984 5985 5985 5985 5985 5985 5985 5985 5985 5985 5985 5984 5984 5984 5984 5984 5983 5983 5983 5982 5982 5982 5981 5981 5980 5979 5978 5977 5976 5975 5974 5973 5972 5971 5970 5969 5968 5966 5965 5964 5962 5960 5958
5969 5969 5969 5970 5970 5971 5971 5972 5972 5973 5973 5973 5974 5974 5975 5976 5976 5976 5977 5977 5978 5978 5978 5978 5978 5979 5979 5979 5980 5980 5980 5980 5981 5981 5981 5982 5982 5982 5983 5984 5984 5984 5984 5985 5985 5985 5985 5985 5985 5985 5985 5984 5984 5984 5984 5984 5983 5983 5983 5983 5982 5982 5982 5981 5981 5980 5979 5978 5978 5977 5976 5975 5974 5973 5972 5971 5970 5969 5968 5966 5965 5963 5962 5960 5958
5969 5969 5969 5970 5970 5971 5972 5972 5973 5973 5973 5973 5974 5974 5975 5975 5976 5976 5976 5977 5977 5978 5978 5978 5979 5979 5979 5979 5980 5980 5980 5981 5981 5981 5981 5982 5982 5982 5983 5983 5984 5984 5984 5984 5985 5985 5985 5985 5985 5984 5984 5984 5984 5983 5983 5983 5983 5982 5982 5982 5981 5981 5981 5980 5980 5979 5978 5977 5977 5976 5975 5974 5973 5972 5971 5970 5969 5968 5967 5966 5965 5963 5961 5959 5957
5968 5969 5969 5969 5970 5970 5971 5971 5972 5973 5973 5973 5973 5974 5974 5974 5975 5975 5976 5976 5977 5977 5978 5978 5978 5979 5979 5979 5979 5980 5980 5980 5980 5981 5981 5981 5982 5982 5982 5983 5983 5983 5984 5984 5984 5984 5984 5984 5984 5984 5984 5984 5983 5983 5982 5982 5982 5981 5981 5981 5981 5980 5980 5979 5979 5978 5977 5977 5976 5975 5974 5974 5973 5972 5971 5970 5969 5968 5967 5965 5964 5962 5960 5958 5956
5967 5968 5969 5969 5970 5970 5970 5971 5971 5972 5972 5973 5973 5973 5973 5974 5974 5975 5975 5976 5976 5976 5977 5977 5978 5978 5979 5979 5979 5979 5980 5980 5980 5980 5981 5981 5981 5981 5982 5982 5982 5983 5983 5983 5984 5984 5984 5984 5984 5983 5983 5983 5983 5983 5982 5982 5981 5981 5981 5980 5980 5980 5979 5978 5978 5977 5977 5976 5975 5974 5973 5973 5972 5971 5970 5969 5968 5967 5966 5964 5963 5961 5959 5957 5955
5966 5967 5968 5969 5969 5970 5970 5970 5971 5971 5972 5972 5972 5972 5973 5973 5973 5974 5974 5975 5975 5975 5976 5976 5977 5977 5978 5978 5979 5979 5979 5980 5980 5980 5980 5980 5981 5981 5981 5981 5982 5982 5982 5983 5983 5983 5983 5983 5983 5983 5983 5983 5982 5982 5982 5981 5981 5980 5980 5980 5979 5979 5978 5978 5977 5977 5976 5975 5974 5973 5973 5972 5971 5970 5969 5968 5967 5965 5964 5963 5962 5960 5959 5956 5954
5965 5966 5967 5968 5969 5969 5969 5970 5970 5970 5971 5971 5971 5971 5972 5972 5972 5973 5973 5973 5974 5974 5975 5975 5976 5976 5977 5977 5978 5978 5979 5979 5979 5979 5980 5980 5980 5980 5980 5981 5981 5981 5981 5982 5982 5982 5982 5982 5982 5982 5982 5982 5981 5981 5981 5980 5980 5980 5979 5979 5979 5979 5978 5978 5977 5976 5975 5974 5973 5973 5972 5971 5970 5969 5968 5967 5966 5964 5963 5962 5961 5960 5958 5956 5954
5964 5965 5966 5967 5968 5969 5969 5969 5969 5969 5969 5970 5970 5970 5971 5971 5971 5972 5972 5972 5973 5973 5974 5974 5975 5975 5976 5976 5977 5977 5978 5978 5978 5979 5979 5979 5979 5980 5980 5980 5980 5981 5981 5981 5981 5981 5981 5981 5981 5981 5981 5981 5980 5980 5980 5980 5979 5979 5979 5979 5978 5978 5977 5977 5976 5975 5974 5974 5973 5972 5971 5970 5969 5968 5967 5966 5965 5964 5962 5961 5960 5959 5957 5955 5953
5962 5964 5965 5966 5967 5968 5968 5969 5969 5968 5968 5968 5969 5969 5969 5970 5970 5970 5971 5971 5972 5972 5973 5973 5973 5974 5975 5975 5976 5976 5976 5977 5977 5978 5978 5978 5979 5979 5979 5979 5979 5980 5980 5980 5980 5980 5980 5980 5980 5980 5980 5980 5980 5979 5979 5979 5979 5979 5979 5978 5978 5977 5976 5976 5975 5974 5974 5973 5972 5971 5970 5969 5968 5967 5966 5965 5964 5963 5961 5960 5959 5958 5956 5954 5952
5961 5962 5964 5965 5966 5967 5968 5968 5968 5968 5968 5968 5968 5968 5968 5968 5969 5969 5970 5970 5971 5971 5972 5972 5972 5973 5973 5974 5974 5975 5975 5976 5976 5976 5977 5977 5978 5978 5978 5978 5978 5979 5979 5979 5979 5979 5979 5979 5979 5979 5979 5979 5979 5979 5979 5979 5978 5978 5978 5977 5977 5976 5976 5975 5974 5973 5972 5972 5971 5970 5969 5968 5967 5966 5965 5964 5962 5961 5960 5959 5958 5957 5955 5953 5951
5960 5961 5962 5964 5965 5966 5967 5968 5968 5968 5967 5967 5967 5967 5967 5967 5967 5968 5968 5969 5969 5970 5970 5971 5971 5972 5972 5973 5973 5974 5974 5974 5975 5975 5975 5976 5976 5977 5977 5977 5977 5978 5978 5978 5978 5978 5978 5978 5978 5978 5978 5978 5978 5978 5978 5978 5978 5977 5977 5976 5976 5975 5975 5974 5973 5972 5971 5970 5970 5969 5968 5967 5966 5965 5964 5963 5962 5960 5959 5958 5957 5955 5954 5952 5950
5960 5960 5961 5962 5963 5964 5966 5967 5967 5967 5967 5967 5966 5966 5966 5966 5966 5966 5967 5967 5968 5968 5969 5970 5970 5971 5971 5972 5972 5973 5973 5973 5974 5974 5974 5974 5975 5975 5976 5976 5976 5976 5977 5977 5977 5977 5977 5977 5977 5977 5977 5977 5977 5977 5977 5977 5977 5976 5976 5976 5975 5974 5974 5973 5972 5971 5971 5970 5969 5968 5967 5966 5965 5964 5963 5962 5961 5959 5958 5957 5956 5954 5953 5951 5950
5959 5960 5960 5960 5961 5962 5964 5965 5966 5966 5967 5966 5966 5966 5966 5965 5965 5965 5965 5966 5966 5967 5967 5968 5969 5970 5970 5971 5971 5972 5972 5972 5973 5973 5973 5973 5974 5974 5974 5975 5975 5975 5975 5975 5976 5976 5976 5976 5976 5976 5976 5976 5976 5976 5976 5976 5976 5976 5975 5975 5974 5973 5972 5972 5971 5970 5970 5969 5968 5967 5966 5965 5964 5963 5961 5960 5960 5958 5957 5956 5955 5953 5952 5951 5949
5956 5958 5959 5959 5959 5960 5961 5963 5964 5965 5965 5966 5966 5966 5965 5965 5965 5965 5965 5965 5965 5966 5966 5966 5967 5968 5969 5969 5970 5970 5971 5971 5971 5972 5972 5972 5972 5973 5973 5973 5974 5974 5974 5974 5975 5975 5975 5975 5975 5975 5975 5975 5975 5975 5975 5975 5975 5975 5974 5974 5973 5972 5972 5971 5970 5969 5969 5968 5968 5966 5965 5964 5963 5962 5960 5959 5958 5958 5956 5955 5954 5953 5951 5950 5948
5953 5954 5955 5957 5958 5959 5960 5961 5962 5963 5964 5964 5964 5965 5965 5965 5965 5965 5964 5964 5964 5965 5965 5965 5965 5966 5967 5967 5968 5968 5969 5970 5970 5970 5971 5971 5971 5971 5972 5972 5972 5973 5973 5973 5973 5974 5974 5974 5974 5974 5974 5974 5974 5974 5973 5973 5973 5973 5973 5972 5972 5971 5970 5970 5969 5968 5968 5967 5967 5965 5964 5964 5963 5962 5960 5959 5958 5957 5956 5955 5953 5952 5950 5949 5947
5950 5950 5951 5952 5954 5956 5957 5959 5960 5961 5962 5962 5963 5963 5964 5964 5965 5965 5964 5964 5963 5963 5963 5963 5964 5964 5965 5965 5966 5966 5967 5968 5968 5969 5969 5969 5969 5970 5970 5971 5971 5971 5972 5972 5972 5972 5972 5972 5972 5972 5973 5972 5972 5972 5972 5971 5971 5971 5970 5970 5970 5969 5969 5968 5967 5966 5966 5966 5966 5964 5963 5963 5963 5961 5960 5959 5958 5956 5955 5954 5953 5951 5950 5948 5947
5946 5947 5948 5949 5950 5951 5953 5955 5957 5959 5959 5960 5960 5961 5962 5963 5963 5964 5964 5963 5962 5962 5962 5962 5962 5962 5962 5963 5963 5964 5965 5965 5966 5967 5967 5967 5968 5968 5968 5969 5969 5970 5970 5970 5971 5971 5971 5971 5971 5971 5971 5971 5970 5970 5970 5969 5969 5969 5968 5968 5968 5967 5967 5967 5966 5964 5964 5965 5965 5963 5962 5961 5962 5961 5959 5958 5957 5956 5955 5954 5952 5951 5949 5948 5946
5943 5944 5946 5947 5948 5949 5949 5951 5953 5955 5956 5957 5958 5959 5960 5961 5961 5962 5962 5962 5961 5960 5960 5960 5960 5960 5960 5960 5961 5962 5962 5963 5963 5964 5965 5965 5965 5966 5966 5967 5967 5967 5968 5968 5969 5969 5969 5969 5969 5969 5969 5969 5969 5968 5968 5968 5967 5967 5966 5966 5966 5966 5965 5965 5964 5963 5962 5962 5963 5963 5961 5960 5960 5960 5958 5957 5956 5955 5953 5952 5951 5950 5948 5947 5945
5940 5942 5944 5945 5946 5947 5947 5947 5948 5949 5951 5953 5955 5957 5958 5959 5959 5960 5960 5960 5960 5959 5958 5958 5957 5957 5958 5958 5958 5959 5959 5960 5961 5962 5962 5963 5963 5964 5964 5964 5965 5965 5966 5966 5967 5967 5967 5967 5967 5967 5967 5967 5967 5966 5966 5966 5965 5965 5964 5964 5964 5964 5964 5963 5963 5961 5960 5960 5961 5962 5961 5959 5958 5959 5957 5955 5955 5953 5952 5951 5950 5948 5947 5946 5945
5938 5939 5940 5942 5943 5943 5943 5944 5944 5946 5948 5950 5952 5954 5955 5956 5956 5957 5957 5957 5957 5957 5957 5957 5956 5956 5956 5956 5957 5957 5958 5958 5959 5959 5960 5960 5961 5962 5962 5963 5963 5963 5964 5964 5964 5965 5965 5965 5965 5965 5965 5965 5965 5964 5964 5964 5964 5963 5962 5962 5962 5962 5961 5961 5961 5959 5957 5957 5958 5959 5959 5957 5956 5956 5955 5953 5953 5951 5950 5948 5948 5947 5946 5944 5943
5935 5936 5937 5939 5940 5940 5941 5941 5942 5943 5945 5948 5950 5951 5952 5952 5952 5953 5954 5954 5955 5955 5955 5955 5955 5955 5955 5956 5956 5956 5956 5957 5957 5957 5958 5958 5959 5960 5961 5961 5962 5962 5962 5962 5962 5962 5962 5963 5963 5963 5962 5963 5963 5963 5962 5962 5962 5961 5961 5961 5960 5959 5959 5959 5959 5957 5955 5954 5954 5956 5957 5955 5953 5953 5953 5951 5950 5949 5947 5946 5945 5945 5944 5942 5941
5933 5934 5935 5936 5936 5937 5938 5939 5941 5942 5944 5946 5947 5947 5947 5946 5947 5949 5951 5952 5953 5953 5954 5954 5954 5955 5955 5955 5955 5955 5955 5955 5955 5955 5956 5956 5957 5958 5958 5959 5960 5960 5961 5960 5960 5960 5960 5960 5960 5960 5960 5961 5961 5961 5960 5960 5960 5960 5960 5960 5959 5957 5957 5957 5956 5955 5953 5951 5950 5951 5953 5952 5950 5950 5950 5948 5948 5947 5944 5943 5942 5942 5941 5940 5939
5930 5931 5932 5933 5933 5934 5935 5937 5939 5941 5942 5942 5941 5941 5941 5942 5943 5946 5948 5950 5951 5951 5951 5951 5952 5952 5952 5952 5952 5952 5953 5953 5952 5953 5953 5954 5955 5955 5956 5956 5957 5958 5959 5957 5957 5957 5957 5957 5958 5958 5958 5958 5958 5958 5958 5958 5958 5957 5958 5958 5956 5954 5955 5955 5954 5952 5951 5949 5946 5946 5949 5949 5947 5947 5947 5946 5944 5943 5941 5939 5939 5938 5938 5937 5936
5924 5926 5928 5929 5930 5931 5932 5934 5936 5938 5939 5937 5936 5936 5936 5938 5940 5943 5945 5947 5948 5948 5948 5947 5948 5948 5948 5948 5948 5949 5949 5949 5949 5949 5950 5951 5952 5953 5953 5953 5954 5956 5956 5953 5952 5953 5954 5954 5955 5956 5956 5956 5956 5955 5955 5955 5954 5954 5955 5955 5953 5951 5952 5952 5950 5950 5950 5948 5944 5942 5944 5946 5944 5943 5943 5943 5942 5940 5937 5936 5935 5934 5934 5933 5933
5919 5921 5923 5925 5926 5928 5929 5930 5932 5933 5933 5932 5932 5934 5934 5934 5936 5938 5940 5942 5944 5945 5945 5945 5945 5945 5946 5946 5946 5946 5946 5945 5945 5946 5946 5947 5948 5949 5950 5950 5951 5952 5951 5948 5948 5949 5950 5950 5952 5952 5953 5953 5953 5952 5952 5951 5950 5950 5950 5951 5949 5948 5948 5948 5947 5946 5947 5947 5942 5938 5940 5942 5941 5940 5939 5939 5939 5937 5934 5933 5932 5931 5931 5930 5929